Powrót do katalogu

CZ-6A DEB

AktywnySSO
NORAD 56282·DEBRIS·🇨🇳 China

Wystrzelony Nov 11, 2022 z Taiyuan Satellite Launch Center

Loading…

Następne Przeloty (najbliższe 24 godziny)

TLE

ŚwieżeSource: Space-Track

Epoka: Sep 14, 2026, 07:01 UTC

1 56282U 22151ADA 26257.29295517  .00002507  00000-0  11332-2 0  9992
2 56282  98.8525 269.8684 0069479  99.0224 261.8824 14.21682921180237

Śledź CZ-6A DEB w czasie rzeczywistym z AllMySat

Download on the App Store